Location: Arthez
(43.0833°N, 0.2500°W)
Time: 00:55:23
(UTC+00:00)

Cosmos 1844 Rocket - Pass Details

Date: 23 October 2021
Orbit: 826 x 843 km, 71.0° (Epoch: 06 December)

Event Time Altitude Azimuth Distance (km) Brightness Sun altitude
Rises 19:22:12 0° 333° (NNW) 3,373 6.3 -25.6°
Reaches altitude 10° 19:24:39 10° 332° (NNW) 2,436 5.5 -26.0°
Maximum altitude 19:30:12 74° 249° (WSW) 863 2.7 -27.0°
Enters shadow 19:31:23 55° 184° (S) 989 2.9 -27.2°
